Weather History for Carroll, IA

Change the Weather History Date:

Thursday, November 22, 2012

  Actual Average Record
Temperature  
Mean Temperature 48 °F -  
Max Temperature 62 °F 42 °F 69 °F (1966)
Min Temperature 35 °F 22 °F 3 °F (1956)
Degree Days  
Heating Degree Days 16    
Moisture  
Dew Point 37 °F    
Average Humidity 62    
Maximum Humidity 81    
Minimum Humidity 37    
Precipitation  
Precipitation 0.00 in - - ()
Sea Level Pressure  
Sea Level Pressure 29.87 in    
Wind  
Wind Speed 21 mph (West)    
Max Wind Speed 36 mph    
Max Gust Speed 44 mph    
Visibility 10 miles    
Events      
Averages and records for this station are not official NWS values.
T = Trace of Precipitation, MM = Missing Value Source: NWS Daily Summary

Daily Weather History Graph

Daily Weather History Graph

Search for Another Location

Airport:

Trip Planner

Search our weather history database for the weather conditions in past years. The results will help you decide how hot, cold, wet, or windy it might be!

Date:

Astronomy

Nov. 22, 2012 Rise Set
Actual Time 7:18 AM CST 4:52 PM CST
Civil Twilight 6:47 AM CST 5:22 PM CST
Nautical Twilight 6:13 AM CST 5:57 PM CST
Astronomical Twilight 5:40 AM CST 6:30 PM CST
Moon 1:43 PM CST (11/22) 1:33 AM CST (11/22)
Length of Visible Light 10h 35m
Length of Day
9h 34m
Waxing Gibbous, 71% of the Moon is Illuminated
Nov 22
Waxing Gibbous
Nov 28
Full
Dec 6
Last Quarter
Dec 13
New
Dec 19
First Quarter

Hourly Weather History & Observations

Time (CST) Temp. Windchill Dew Point Humidity Pressure Visibility Wind Dir Wind Speed Gust Speed Precip Events Conditions
12:15 AM 55.4 °F - 41.0 °F 58% 29.79 in 10.0 mi South 20.7 mph - N/A   Clear
12:35 AM 55.4 °F - 41.0 °F 58% 29.79 in 10.0 mi SSW 19.6 mph 29.9 mph N/A   Clear
12:55 AM 55.4 °F - 41.0 °F 58% 29.78 in 10.0 mi SSW 20.7 mph 29.9 mph N/A   Clear
1:15 AM 55.4 °F - 41.0 °F 58% 29.77 in 10.0 mi SSW 20.7 mph 28.8 mph N/A   Clear
1:35 AM 55.4 °F - 41.0 °F 58% 29.76 in 10.0 mi SSW 21.9 mph 29.9 mph N/A   Clear
1:55 AM 55.4 °F - 41.0 °F 58% 29.76 in 10.0 mi SSW 21.9 mph - N/A   Clear
2:15 AM 55.4 °F - 41.0 °F 58% 29.76 in 10.0 mi SSW 20.7 mph 27.6 mph N/A   Clear
2:35 AM 55.4 °F - 41.0 °F 58% 29.75 in 10.0 mi SSW 18.4 mph - N/A   Clear
2:55 AM 55.4 °F - 41.0 °F 58% 29.75 in 10.0 mi SSW 18.4 mph 26.5 mph N/A   Clear
3:15 AM 55.4 °F - 41.0 °F 58% 29.74 in 10.0 mi SSW 21.9 mph 29.9 mph N/A   Clear
3:35 AM 55.4 °F - 41.0 °F 58% 29.74 in 10.0 mi SSW 20.7 mph 27.6 mph N/A   Clear
3:55 AM 55.4 °F - 41.0 °F 58% 29.73 in 10.0 mi SSW 20.7 mph 27.6 mph N/A   Clear
4:15 AM 53.6 °F - 41.0 °F 62% 29.72 in 10.0 mi SSW 19.6 mph 27.6 mph N/A   Clear
4:35 AM 53.6 °F - 41.0 °F 62% 29.72 in 10.0 mi SSW 19.6 mph 27.6 mph N/A   Clear
4:55 AM 53.6 °F - 41.0 °F 62% 29.72 in 10.0 mi SSW 20.7 mph - N/A   Clear
5:15 AM 53.6 °F - 41.0 °F 62% 29.71 in 10.0 mi SSW 18.4 mph - N/A   Clear
5:35 AM 51.8 °F - 41.0 °F 67% 29.70 in 10.0 mi SSW 20.7 mph - N/A   Clear
5:55 AM 51.8 °F - 41.0 °F 67% 29.71 in 10.0 mi SSW 18.4 mph - N/A   Clear
6:15 AM 51.8 °F - 42.8 °F 71% 29.72 in - SSW 18.4 mph 24.2 mph N/A   Clear
6:35 AM 51.8 °F - 42.8 °F 71% 29.71 in 10.0 mi SW 16.1 mph 24.2 mph N/A   Clear
6:55 AM 51.8 °F - 42.8 °F 71% 29.71 in 10.0 mi SW 17.3 mph 23.0 mph N/A   Clear
7:15 AM 50.0 °F - 42.8 °F 76% 29.72 in 10.0 mi SW 12.7 mph - N/A   Clear
7:35 AM 50.0 °F - 42.8 °F 76% 29.72 in 10.0 mi SW 12.7 mph 18.4 mph N/A   Clear
7:55 AM 51.8 °F - 42.8 °F 71% 29.71 in 10.0 mi SW 19.6 mph - N/A   Clear
8:15 AM 51.8 °F - 42.8 °F 71% 29.71 in 10.0 mi SW 19.6 mph 26.5 mph N/A   Clear
8:35 AM 51.8 °F - 44.6 °F 76% 29.72 in 10.0 mi SW 17.3 mph 24.2 mph N/A   Clear
8:55 AM 55.4 °F - 44.6 °F 67% 29.71 in 10.0 mi SW 20.7 mph - N/A   Clear
9:15 AM 57.2 °F - 44.6 °F 63% 29.71 in 10.0 mi SW 28.8 mph - N/A   Clear
9:35 AM 57.2 °F - 44.6 °F 63% 29.72 in 10.0 mi WSW 26.5 mph - N/A   Clear
9:55 AM 57.2 °F - 42.8 °F 59% 29.73 in 10.0 mi WSW 20.7 mph 28.8 mph N/A   Clear
10:15 AM 59.0 °F - 42.8 °F 55% 29.73 in 10.0 mi West 17.3 mph - N/A   Clear
10:35 AM 59.0 °F - 41.0 °F 51% 29.73 in 10.0 mi West 20.7 mph - N/A   Clear
10:55 AM 59.0 °F - 39.2 °F 48% 29.74 in 10.0 mi West 17.3 mph 24.2 mph N/A   Clear
11:15 AM 60.8 °F - 39.2 °F 45% 29.74 in 10.0 mi West 16.1 mph - N/A   Clear
11:35 AM 62.6 °F - 35.6 °F 37% 29.74 in 10.0 mi West 19.6 mph - N/A   Clear
11:55 AM 60.8 °F - 35.6 °F 39% 29.76 in 10.0 mi WNW 19.6 mph - N/A   Clear
12:15 PM 60.8 °F - 35.6 °F 39% 29.78 in 10.0 mi WNW 26.5 mph 34.5 mph N/A   Clear
12:35 PM 59.0 °F - 35.6 °F 42% 29.78 in 10.0 mi WNW 28.8 mph 36.8 mph N/A   Clear
12:55 PM 59.0 °F - 37.4 °F 45% 29.79 in 10.0 mi NW 25.3 mph 34.5 mph N/A   Clear
1:15 PM 59.0 °F - 37.4 °F 45% 29.80 in 10.0 mi NW 29.9 mph 36.8 mph N/A   Clear
1:35 PM 59.0 °F - 37.4 °F 45% 29.82 in 10.0 mi NW 28.8 mph 41.4 mph N/A   Clear
1:55 PM 57.2 °F - 37.4 °F 48% 29.84 in 10.0 mi NW 32.2 mph 40.3 mph N/A   Clear
2:15 PM 57.2 °F - 37.4 °F 48% 29.85 in 10.0 mi NW 34.5 mph 43.7 mph N/A   Clear
2:35 PM 53.6 °F - 35.6 °F 51% 29.87 in 10.0 mi NW 35.7 mph 43.7 mph N/A   Clear
2:55 PM 51.8 °F - 35.6 °F 54% 29.89 in 10.0 mi NW 34.5 mph 42.6 mph N/A   Clear
3:15 PM 51.8 °F - 35.6 °F 54% 29.91 in 10.0 mi NW 31.1 mph 40.3 mph N/A   Clear
3:35 PM 50.0 °F - 35.6 °F 58% 29.93 in - NW 29.9 mph 40.3 mph N/A   Clear
3:55 PM 50.0 °F - 35.6 °F 58% 29.94 in 10.0 mi NNW 34.5 mph - N/A   Clear
4:15 PM 48.2 °F - 33.8 °F 58% 29.97 in 10.0 mi NW 32.2 mph 41.4 mph N/A   Clear
4:35 PM 46.4 °F 37.7 °F 33.8 °F 62% 29.99 in 10.0 mi NNW 26.5 mph 42.6 mph N/A   Clear
4:55 PM 44.6 °F 36.1 °F 33.8 °F 66% 30.01 in 10.0 mi NNW 21.9 mph 35.7 mph N/A   Clear
5:15 PM 42.8 °F 33.5 °F 33.8 °F 70% 30.02 in 10.0 mi NW 23.0 mph - N/A   Clear
5:35 PM 42.8 °F 34.3 °F 33.8 °F 70% 30.03 in 10.0 mi NW 19.6 mph 28.8 mph N/A   Partly Cloudy
5:55 PM 42.8 °F 34.3 °F 33.8 °F 70% 30.05 in 10.0 mi NW 19.6 mph 25.3 mph N/A   Partly Cloudy
6:15 PM 42.8 °F 34.3 °F 33.8 °F 70% 30.06 in 10.0 mi NW 19.6 mph 29.9 mph N/A   Clear
6:35 PM 41.0 °F 32.8 °F 33.8 °F 76% 30.07 in 10.0 mi NW 16.1 mph 25.3 mph N/A   Clear
6:55 PM 41.0 °F 32.5 °F 33.8 °F 76% 30.09 in 10.0 mi NW 17.3 mph - N/A   Clear
7:15 PM 41.0 °F 33.1 °F 33.8 °F 76% 30.09 in 10.0 mi WNW 15.0 mph - N/A   Clear
7:35 PM 41.0 °F 34.3 °F 33.8 °F 76% 30.10 in 10.0 mi WNW 11.5 mph 18.4 mph N/A   Scattered Clouds
7:55 PM 39.2 °F 30.8 °F 33.8 °F 81% 30.10 in 10.0 mi NW 15.0 mph - N/A   Clear
8:15 PM 39.2 °F 30.2 °F 32.0 °F 75% 30.11 in 10.0 mi NW 17.3 mph 23.0 mph N/A   Clear
8:35 PM 39.2 °F 29.6 °F 32.0 °F 75% 30.12 in 10.0 mi NW 19.6 mph 27.6 mph N/A   Clear
8:55 PM 39.2 °F 30.2 °F 30.2 °F 70% 30.14 in 10.0 mi NW 17.3 mph 26.5 mph N/A   Clear
9:15 PM 39.2 °F 31.6 °F 30.2 °F 70% 30.14 in 10.0 mi NW 12.7 mph 21.9 mph N/A   Clear
9:35 PM 37.4 °F 30.3 °F 30.2 °F 75% 30.14 in 10.0 mi WNW 10.4 mph - N/A   Clear
9:55 PM 37.4 °F 28.9 °F 28.4 °F 70% 30.14 in 10.0 mi WNW 13.8 mph - N/A   Clear
10:15 PM 35.6 °F 27.1 °F 28.4 °F 75% 30.14 in 10.0 mi WNW 12.7 mph - N/A   Clear
10:35 PM 35.6 °F 25.5 °F 28.4 °F 75% 30.14 in 10.0 mi NW 17.3 mph - N/A   Clear
10:55 PM 35.6 °F 25.2 °F 26.6 °F 70% 30.15 in 10.0 mi NW 18.4 mph 26.5 mph N/A   Clear
11:15 PM 35.6 °F 27.5 °F 26.6 °F 70% 30.16 in 10.0 mi WNW 11.5 mph 19.6 mph N/A   Partly Cloudy
11:35 PM 35.6 °F 25.9 °F 24.8 °F 65% 30.16 in 10.0 mi WNW 16.1 mph 25.3 mph N/A   Mostly Cloudy
11:55 PM 35.6 °F 25.5 °F 24.8 °F 65% 30.17 in 10.0 mi WNW 17.3 mph 23.0 mph N/A   Overcast